Hourly Weather Roundup
Issued by NWS Central Illinois

Home | Current Version | Previous Version | Text Only | Print | Product List | Glossary On
Versions: 1 2 3 4 5 6 7 8 9 10 11 12 13 14 15 16 17 18 19 20 21 22 23 24 25 26 27 28 29 30 31 32 33 34 35 36 37 38 39 40 41 42 43 44 45 46 47 48 49 50
000
NZUS43 KILX 301010
HWRILX

AREA WEATHER ROUNDUP
NATIONAL WEATHER SERVICE, LINCOLN IL
500 AM CDT MON MAY 30 2016


CITY           SKY/WX    TMP DP  RH WIND       PRES   REMARKS
BLOOMINGTON    CLOUDY    63  60  90 SW5       30.05S
CHAMPAIGN      CLOUDY    61  57  87 SW6       30.04S
DANVILLE       CLOUDY    61  59  92 CALM      30.03S
DECATUR        CLOUDY    62  57  83 CALM      30.04S
EFFINGHAM      CLOUDY    62  62 100 CALM      30.07R
FLORA          CLOUDY    62  61  95 CALM      30.05S
GALESBURG      CLEAR     59  57  92 CALM      30.02S
JACKSONVILLE   MOCLDY    64  62  92 CALM      30.04R
LACON          CLOUDY    62  58  87 CALM      30.01F
LAWRENCEVILLE  CLOUDY    64  62  93 CALM      30.05S
LITCHFIELD     CLEAR     62  59  90 CALM      30.05S
$$


CITY           SKY/WX    TMP DP  RH WIND       PRES   REMARKS
LINCOLN        CLOUDY    63  60  90 CALM      30.04R
MACOMB         PTCLDY    62  60  92 CALM      30.05R
MATTOON        CLOUDY    64  58  80 CALM      30.04F
MT CARMEL AP   CLOUDY    62  59  91 W3        30.05S
OLNEY-NOBLE AP CLEAR     61  61 100 CALM      30.06R
PARIS          PTCLDY    60  58  93 CALM      30.06S
PEORIA         CLOUDY    62  58  86 CALM      30.03S
PONTIAC        CLOUDY    61  58  91 CALM      30.03S
RANTOUL        CLOUDY    64  60  87 CALM      30.04F
ROBINSON       CLOUDY    58  58  99 CALM      30.06S
SPRINGFIELD    PTCLDY    64  60  87 CALM      30.04S
TAYLORVILLE    CLOUDY    60  59  95 CALM      30.05R
$$

...REGIONAL REPORTS...


CITY           SKY/WX    TMP DP  RH WIND       PRES   REMARKS
CHICAGO O`HARE PTCLDY    64  57  78 W5        30.00S
KANKAKEE       CLEAR     59  56  90 CALM      30.04R
MOLINE         CLOUDY    65  59  81 NW7       30.01R
MOUNT STERLING PTCLDY    62  60  94 SW3       30.03R
MOUNT VERNON   PTCLDY    59  55  88 CALM      30.06R
PITTSFIELD     CLEAR     64  63  95 CALM      30.05R
QUINCY         CLEAR     65  62  90 S5        30.03R
ROCKFORD       PTCLDY    62  59  90 CALM      30.03S
$$


CITY           SKY/WX    TMP DP  RH WIND       PRES   REMARKS
BURLINGTON     CLOUDY    67  62  84 W3        30.01F
CEDAR RAPIDS   CLOUDY    60  59  96 CALM      30.00S
DES MOINES     CLOUDY    66  58  75 W5        29.99S
KIRKSVILLE     CLEAR     66  60  81 SW5       30.03S
OTTUMWA        CLOUDY    66  64  93 SW7       30.01S
ST LOUIS       PTCLDY    69  60  73 CALM      30.05S
$$


CITY           SKY/WX    TMP DP  RH WIND       PRES   REMARKS
TERRE HAUTE    PTCLDY    60  57  89 CALM      30.05S
EVANSVILLE     CLEAR     63  59  87 CALM      30.05S
INDIANAPOLIS   MOCLDY    64  56  75 NW3       30.03S
LAFAYETTE      CLOUDY    59  57  93 CALM      30.04S
MADISON        FOG       57  57 100 CALM      30.00R VSB 1/4
MILWAUKEE      CLEAR     65  57  75 W3        29.99R
$$






USA.gov is the U.S. government's official web portal to all federal, state and local government web resources and services.